Regional Weather Roundup
Issued by NWS Albany, NY

Home | Current Version | Previous Version | Text Only | Print | Product List | Glossary On
Versions: 1 2 3 4 5 6 7 8 9 10 11 12 13 14 15 16 17 18 19 20 21 22 23 24 25 26 27 28 29 30 31 32 33 34 35 36 37 38 39 40 41 42 43 44 45 46 47 48 49 50
000
ASUS41 KALY 030510
RWRALY

NEW YORK STATE HOURLY WEATHER ROUNDUP
NATIONAL WEATHER SERVICE ALBANY NY
1200 AM EST TUE MAR 03 2015

NOTE: "FAIR" INDICATES FEW OR NO CLOUDS BELOW 12,000 FEET WITH NO
SIGNIFICANT WEATHER AND/OR NO OBSTRUCTIONS TO VISIBILITY.

NYZ032-033-038>043-046>054-057>066-NYZ062>081-030600-
EAST


CITY           SKY/WX    TMP DP  RH WIND       PRES   REMARKS
ALBANY         FAIR      21   6  52 NW13      30.35R WCI   9
GLENS FALLS    FAIR      20   5  52 NW6       30.33R WCI  12
POUGHKEEPSIE   FAIR      24   7  48 NW7       30.34R WCI  16
NEWBURGH       CLEAR     23  10  58 W12       30.34R WCI  12
MONTGOMERY     FAIR      23   7  50 NW12      30.33R WCI  12
WHITE PLAINS   FAIR      23   8  52 NW8       30.32R WCI  14
ISLIP          FAIR      24   9  52 W7        30.34R WCI  16
NEW YORK CITY  FAIR      28  12  51 NW13      30.37R WCI  17
CENTRAL PARK   FAIR      27   9  46 VRB6      30.39R WCI  20
$$

NYZ005>009-017-018-044>046-055-056-030600-
CENTRAL


CITY           SKY/WX    TMP DP  RH WIND       PRES   REMARKS
FULTON         FAIR      16   7  67 NW5       30.39R WCI   9
SYRACUSE       PTCLDY    10   6  84 W7        30.38S WCI  -1
ROME           FAIR       6   3  87 CALM      30.39S
ELMIRA         MOCLDY    16   7  67 CALM      30.37F
BINGHAMTON     CLOUDY    15   7  70 NW6       30.30S WCI   6
MONTICELLO     FAIR      18   7  62 NW12G18   30.29S WCI   5
$$

NYZ026>034-041>043-030600-
NORTH


CITY           SKY/WX    TMP DP  RH WIND       PRES   REMARKS
WATERTOWN      FAIR      10   2  69 S6        30.37S WCI   0
FORT DRUM      NOT AVBL
MASSENA        FAIR       0  -3  87 CALM      30.36S
SARANAC LAKE   FAIR       3  -2  79 W5        30.21R WCI  -6
PLATTSBURGH    FAIR      16   2  54 NW8       30.33R WCI   5
$$

NYZ001>004-010>016-019>021-030600-
WEST


CITY           SKY/WX    TMP DP  RH WIND       PRES   REMARKS
NIAGARA FALLS  FAIR       9   4  80 SW6       30.40F WCI  -1
BUFFALO        FAIR      11   5  77 SW8       30.40F WCI  -1
DUNKIRK        FAIR       2   0  91 S3        30.41F
JAMESTOWN      FAIR      10   7  85 CALM      30.32F
WELLSVILLE     FAIR      11   5  77 W7        30.29F WCI   0
ROCHESTER      MOCLDY    19   9  65 W6        30.40S WCI  11
PENN YAN       CLOUDY    18   7  62 W6        30.37S WCI  10
$$

             KEY
       WCI = WIND CHILL INDEX
       VSB = VISIBILITY
       HX  = HEAT INDEX
$$


USA.gov is the U.S. government's official web portal to all federal, state and local government web resources and services.